Wind_Speed
15 16 17 19 21 21 19 18 17 17 17 17 18 20 22 24 26 26 27 27 27 27 27 28 28 28 28 28 29 29 30 30 30 31 31 31 30 30 29 29 29 28 28 29 30 31 28 23 20 15 10 11 14 14 14 13 13 14 16 17 17 16 15 13 12 10 10 10 10 10 10 11 11 12 12 11 10 9 8 8 7 6 6 6 6
15 16 17 19 21 21 19 17 17 17 17 19 20 22 24 25 26 27 27 27 28 28 28 29 28 28 29 29 29 29 30 30 30 30 30 31 31 30 29 29 29 28 28 27 28 29 29 27 24 22 18 12 10 12 15 16 15 14 14 16 17 17 16 15 14 13 12 11 11 11 12 12 12 12 13 12 11 10 9 8 8 7 7 7 7
15 16 17 19 20 20 20 17 15 16 17 19 20 22 24 25 26 27 28 28 29 29 29 29 29 29 29 30 29 29 29 29 29 29 29 30 30 30 30 29 29 29 28 27 27 26 26 25 24 25 22 18 18 13 11 14 17 17 15 15 16 16 17 16 15 15 14 13 12 12 12 13 13 13 13 13 13 12 11 10 9 8 8 7 7
15 16 17 19 20 20 19 17 14 13 14 16 18 20 22 23 24 25 26 27 28 29 29 30 30 31 31 31 30 30 29 29 28 28 28 28 28 29 29 29 29 28 28 27 28 26 23 22 21 24 24 22 21 15 9 10 15 18 17 16 16 16 16 17 17 16 16 15 14 13 13 13 14 15 14 14 13 13 12 12 11 10 9 9 8
14 16 17 19 20 20 19 16 13 12 12 12 14 16 19 21 22 23 24 25 27 28 28 29 29 30 30 30 30 30 30 30 29 28 28 28 28 28 27 28 28 27 28 27 27 26 24 21 19 21 24 24 23 18 12 12 13 15 19 19 18 18 17 17 18 18 17 17 16 15 14 14 14 15 16 15 15 14 14 13 13 12 11 10 10
14 16 17 19 21 21 20 17 14 12 11 11 12 14 17 18 20 21 21 23 25 27 28 29 28 28 28 29 29 29 29 30 29 29 29 29 28 28 27 26 26 26 27 27 26 26 25 22 21 22 23 24 24 22 19 18 17 12 16 22 21 21 20 18 18 18 17 17 17 18 17 16 16 16 17 17 17 16 15 14 14 13 13 12 12
15 16 18 20 22 22 21 19 16 14 12 12 13 14 16 18 19 20 20 22 25 27 29 29 29 28 27 27 27 27 27 28 29 29 29 29 29 29 28 26 25 25 25 26 26 25 24 23 23 23 23 23 23 23 23 22 21 17 12 16 23 24 22 21 20 18 16 16 17 19 19 18 18 17 17 17 17 16 16 16 15 15 15 14 13
16 17 18 20 21 22 21 20 19 17 16 15 15 16 17 18 19 20 20 22 26 29 29 30 30 29 28 27 27 27 26 27 28 29 28 29 29 29 29 28 26 25 25 25 25 24 23 22 23 23 24 23 22 21 22 22 22 22 19 14 14 22 24 23 22 20 18 16 17 20 20 20 20 19 19 18 17 16 16 16 16 16 16 16 15
16 17 18 20 21 22 21 20 19 18 17 17 17 18 19 19 19 20 21 23 27 29 29 30 30 30 28 27 27 28 27 26 27 27 28 28 29 29 29 29 28 27 26 25 24 24 22 21 21 22 23 23 22 22 20 20 21 22 22 21 15 10 20 23 22 22 21 19 19 21 20 20 21 21 22 21 19 17 16 16 16 15 15 16 17
18 19 20 21 22 22 22 21 20 19 18 18 19 20 20 20 20 20 21 25 27 29 30 30 30 29 28 27 27 28 28 27 27 27 27 27 28 28 28 29 29 29 27 26 25 25 23 22 20 20 21 22 22 22 21 19 19 20 21 21 19 10 11 19 20 21 23 23 23 23 20 19 21 22 23 23 22 20 19 17 16 15 14 14 17
19 20 21 22 23 23 24 24 23 22 21 21 21 21 22 22 22 22 24 26 28 30 31 31 30 28 27 27 28 29 28 27 28 27 27 27 27 28 28 28 29 29 29 28 27 26 25 24 22 21 20 20 22 22 22 20 18 17 17 17 16 13 8 15 21 23 24 25 27 28 25 24 23 21 23 24 24 23 20 19 19 19 17 16 16
19 20 21 22 23 23 24 25 25 25 24 24 23 23 23 23 24 25 26 28 29 31 31 31 30 29 28 28 29 30 28 27 28 29 29 28 28 28 29 29 29 29 29 29 29 28 27 27 25 24 22 20 20 21 22 22 21 18 16 14 14 15 12 9 17 23 25 25 27 29 29 28 26 24 24 26 26 24 22 21 23 24 23 21 19
19 20 21 22 22 22 22 23 24 25 25 25 25 25 25 25 26 26 27 28 29 30 31 30 30 29 29 29 30 30 28 27 28 30 31 30 30 30 30 30 30 29 29 29 29 29 29 29 28 27 25 23 22 21 22 22 21 21 18 16 14 15 15 13 12 15 23 27 26 28 31 30 28 28 29 28 26 25 25 26 26 27 28 26 23
18 20 21 21 21 21 21 21 23 24 25 25 25 26 27 27 28 29 29 30 31 32 32 31 30 30 30 30 30 29 27 27 29 31 32 32 32 32 32 32 31 31 30 30 29 29 29 29 30 30 29 28 26 25 23 22 22 22 21 20 17 15 14 14 15 13 17 27 30 30 32 32 32 33 34 33 30 28 29 31 30 29 30 30 28
18 19 20 21 22 21 21 22 24 25 25 25 26 28 29 30 30 31 32 33 33 33 33 32 31 31 31 30 30 28 27 27 29 31 32 33 33 33 33 33 33 33 33 32 31 31 30 30 29 30 30 30 29 29 27 25 24 23 23 23 21 18 16 15 15 14 14 19 28 32 32 32 33 33 34 36 35 33 33 35 34 32 31 32 32
18 19 20 21 21 22 22 23 25 26 26 27 28 29 30 31 32 33 34 35 35 35 34 33 32 32 32 32 31 29 28 28 30 32 33 34 34 34 34 34 34 34 34 34 33 33 32 32 31 30 30 29 30 30 31 30 28 26 26 26 25 23 21 19 17 16 15 15 19 26 31 33 34 33 33 36 37 37 37 37 38 36 34 33 33
18 19 19 20 21 22 23 24 26 27 28 29 29 30 31 32 33 33 34 35 35 35 35 33 32 33 34 34 33 31 30 30 31 33 34 35 35 35 35 35 35 34 34 34 34 34 34 33 32 32 31 30 30 30 31 32 32 32 30 29 29 27 24 23 22 20 18 17 17 19 24 31 36 38 38 39 40 40 40 40 40 39 38 35 34
18 19 19 20 21 22 24 25 27 28 29 30 30 30 31 32 32 33 34 34 35 35 34 32 31 32 34 35 35 34 33 33 33 34 34 35 36 36 36 35 35 34 34 34 34 34 34 34 34 33 33 32 32 32 32 32 33 34 35 34 32 31 29 26 24 24 22 21 21 20 21 24 30 36 41 42 43 43 43 42 42 41 41 39 38
18 19 19 19 21 23 24 26 27 28 29 30 30 30 31 32 32 32 33 34 35 35 33 30 30 32 34 35 36 35 34 34 34 34 35 36 36 37 37 37 36 35 35 35 35 35 35 35 34 34 33 32 32 33 34 34 33 33 34 35 35 35 34 30 26 25 25 25 24 24 24 23 24 28 34 40 44 45 45 45 44 44 44 43 42
18 19 19 20 21 23 24 26 27 28 29 29 29 30 31 31 31 32 33 34 35 34 32 29 29 31 34 35 35 35 35 35 34 34 35 35 36 37 38 38 38 37 36 36 35 35 36 36 35 35 35 33 31 30 32 34 35 34 33 34 35 36 37 34 28 26 26 27 27 27 27 27 26 26 27 31 36 41 44 46 47 47 46 46 45
19 19 20 21 22 23 24 25 27 28 28 28 29 29 30 30 30 31 32 33 33 33 31 29 28 31 34 35 35 35 35 35 35 35 35 35 36 37 37 37 38 38 38 37 37 37 37 37 37 36 36 35 33 30 29 30 32 34 35 34 35 35 37 37 33 29 27 28 28 29 29 29 29 29 28 28 29 33 37 41 45 47 48 47 47
19 19 20 21 22 23 24 25 26 28 28 28 28 28 28 28 29 30 31 32 32 32 31 30 30 32 34 35 35 35 35 35 35 35 35 35 35 35 36 36 37 38 39 39 39 38 38 38 37 36 36 35 32 29 28 28 28 30 33 35 36 36 36 36 36 34 31 30 29 29 31 32 31 31 31 30 30 30 32 34 38 42 46 48 48
19 20 20 21 23 24 24 25 26 27 28 28 28 28 28 28 29 30 30 31 32 33 32 32 32 33 35 35 35 35 36 36 35 35 35 35 35 36 37 37 37 38 38 39 39 39 39 39 39 38 37 35 31 29 29 29 29 29 30 32 34 35 35 35 36 36 34 33 32 31 31 33 34 34 34 33 32 32 32 33 33 35 39 43 46
19 20 21 22 23 24 25 26 27 28 28 29 29 29 30 30 30 30 31 32 33 33 33 33 33 34 35 35 35 36 37 37 36 36 36 36 37 37 38 38 38 38 39 39 40 40 40 40 41 42 40 38 34 32 32 33 33 33 32 33 33 34 34 35 35 35 35 35 36 35 34 33 35 36 37 37 36 35 34 34 34 35 36 38 41
19 20 21 22 23 25 26 27 27 28 29 29 30 31 31 31 31 32 32 33 33 34 34 34 34 35 36 36 36 36 37 37 36 36 37 37 38 39 40 40 40 40 40 41 41 41 41 41 42 42 42 40 38 37 36 36 35 35 35 35 35 34 34 34 34 35 35 36 37 38 39 38 36 36 37 39 40 40 39 37 36 36 37 38 39
19 20 21 22 23 24 26 27 28 29 30 31 31 32 33 33 34 34 34 34 35 35 36 35 35 36 37 38 37 37 38 37 36 36 37 38 40 41 42 42 43 43 43 42 42 42 42 42 43 43 42 42 41 40 39 38 38 38 38 38 37 36 35 34 34 34 35 36 38 39 41 43 42 40 39 39 42 43 43 43 41 39 38 39 39
19 20 21 23 24 25 26 28 29 29 30 31 32 33 34 35 35 36 36 36 36 36 36 36 36 38 39 39 38 37 39 38 38 37 37 38 41 42 44 45 45 45 45 45 45 45 45 45 46 46 45 44 43 42 42 41 41 41 40 40 40 39 38 36 35 34 34 35 37 39 41 44 46 46 44 42 42 44 46 46 46 45 43 41 40
20 21 23 24 25 26 27 28 29 30 31 32 33 34 35 36 36 36 37 38 39 39 37 36 36 40 42 41 40 40 40 41 40 39 38 39 40 43 44 46 46 47 47 48 48 49 49 49 49 49 49 48 46 44 44 44 45 45 44 43 43 42 41 39 37 36 35 35 36 38 40 43 45 48 49 48 45 45 46 48 49 49 49 47 45
21 22 24 25 26 27 29 29 29 30 32 33 34 35 37 38 37 37 38 39 41 41 39 35 35 41 44 44 43 43 44 45 43 40 39 39 41 42 44 46 47 48 48 49 50 50 51 51 52 52 52 51 50 48 48 47 47 48 48 47 45 44 43 42 41 39 38 36 36 36 38 41 44 46 49 50 50 49 48 49 51 52 52 52 51
22 24 25 26 27 28 30 30 30 31 33 35 35 36 38 38 38 38 38 40 42 42 38 34 36 43 48 47 47 47 48 48 45 42 42 41 42 43 44 47 49 49 50 50 51 52 52 53 54 54 54 54 53 52 52 51 51 51 50 49 48 46 45 43 42 41 40 39 38 37 38 40 43 46 49 51 52 53 52 51 51 52 54 55 55
24 25 27 28 28 29 30 31 31 32 34 36 37 37 38 39 39 39 40 40 41 41 39 37 40 46 49 49 49 50 50 50 47 46 46 45 45 46 46 49 51 51 52 52 52 53 54 55 55 55 55 55 55 55 55 55 55 55 54 52 51 49 48 47 45 44 42 42 40 39 39 40 42 45 48 51 53 55 56 56 55 54 55 56 57
26 28 29 30 30 30 31 31 32 33 35 37 38 39 40 41 41 41 42 42 42 42 42 42 45 48 50 50 50 50 50 49 49 49 49 48 48 48 49 51 53 54 55 55 55 55 56 57 57 57 57 56 56 57 58 58 58 58 57 56 55 54 53 51 50 48 46 45 44 43 42 41 42 44 47 50 53 55 57 59 60 59 58 58 58
30 31 32 32 32 32 32 32 33 34 36 38 39 41 42 43 43 44 43 44 44 44 44 45 47 49 50 50 50 50 50 50 49 49 50 50 50 50 51 53 54 56 57 57 57 57 58 60 60 60 59 58 58 59 60 60 59 60 60 60 60 59 57 55 53 51 50 49 47 46 45 45 44 44 46 48 51 54 56 58 60 62 62 62 61
33 35 35 34 34 34 34 34 34 35 37 39 40 42 44 45 46 46 46 46 46 46 46 47 48 49 50 50 51 52 52 50 48 48 50 51 51 51 53 55 56 57 58 58 58 59 59 61 62 62 61 61 61 62 62 61 61 61 62 63 63 61 59 57 55 53 52 50 50 50 49 48 47 47 47 48 49 52 55 58 60 62 64 65 65
36 37 37 36 36 36 36 36 36 37 38 39 41 44 46 47 48 49 49 49 49 49 49 49 51 52 50 50 53 54 51 47 46 48 52 54 53 53 55 57 58 59 59 60 60 60 61 61 63 63 63 63 64 64 63 62 62 64 65 64 63 61 60 58 57 56 54 52 52 52 52 51 50 50 50 50 50 51 53 56 59 61 63 65 67
38 39 38 38 38 38 38 38 38 38 39 40 42 45 47 48 50 51 52 52 53 53 52 53 55 53 50 51 54 53 48 45 47 51 57 58 56 57 59 60 61 61 61 61 61 62 63 63 64 64 64 65 65 65 63 62 64 66 67 65 63 61 60 59 58 58 57 56 55 54 54 54 53 53 52 52 52 53 54 56 59 61 63 65 67
40 40 40 39 39 40 40 40 40 40 40 42 44 46 48 49 51 52 54 55 55 55 55 56 55 54 53 54 52 49 47 48 51 57 62 63 60 61 63 63 63 63 63 63 63 64 65 65 65 66 66 67 66 65 62 62 65 68 68 65 63 61 60 59 59 59 59 58 58 57 57 57 57 56 55 54 53 54 55 57 59 61 64 67 69
41 41 41 40 41 42 43 42 42 42 42 43 45 47 49 50 51 53 55 56 57 57 57 56 56 57 56 52 47 47 49 54 58 63 67 66 64 65 66 65 65 65 65 65 65 65 66 67 67 68 69 68 67 65 63 64 67 70 69 66 63 61 59 59 59 59 59 59 59 58 58 58 59 59 59 57 56 55 55 56 58 61 64 67 69
42 42 42 42 43 44 45 45 44 44 45 46 47 48 50 51 52 53 56 57 58 58 58 58 58 56 50 44 44 48 53 59 64 67 69 69 67 67 67 66 66 66 66 66 65 66 66 67 69 70 70 69 67 66 65 66 70 73 72 69 67 64 61 59 59 59 59 58 58 57 57 57 58 58 59 59 60 59 57 55 56 59 62 65 67
44 44 44 44 45 47 47 47 47 47 48 49 49 50 51 53 53 55 56 58 58 59 60 58 53 48 43 41 44 51 58 63 66 69 71 70 69 69 68 67 67 67 66 66 66 66 67 68 70 70 69 68 68 67 67 70 73 75 76 76 75 73 70 67 65 63 61 59 58 57 56 56 56 56 56 57 59 59 58 57 57 58 59 62 64
46 46 46 46 47 48 49 50 50 51 51 52 52 52 53 53 54 56 58 58 59 59 57 52 44 41 41 42 48 57 63 65 68 72 73 71 70 70 68 67 68 67 66 66 66 67 68 70 71 70 69 69 69 69 70 73 76 78 81 82 82 81 79 76 74 72 67 63 60 58 57 56 55 54 55 56 58 58 57 58 60 60 60 60 61
48 48 48 48 49 50 51 52 53 53 54 55 55 55 55 55 56 57 59 59 59 56 52 48 43 42 43 48 56 64 65 65 70 74 73 71 71 70 69 68 68 67 66 66 67 69 70 71 72 71 71 70 71 71 73 76 78 80 83 85 87 86 83 80 78 77 74 69 64 61 60 59 56 55 56 57 58 59 59 60 62 63 63 62 62
51 50 50 50 51 52 53 54 56 57 57 58 59 59 59 58 57 59 60 61 58 52 49 49 49 49 52 56 60 63 64 67 72 74 71 71 71 69 69 69 68 67 67 67 69 70 71 72 72 72 72 72 73 74 75 77 80 83 86 88 90 90 87 81 78 77 76 72 67 64 63 63 60 58 58 60 61 62 62 63 65 65 66 66 66
53 52 52 53 53 54 55 56 58 58 60 61 63 62 61 60 59 60 61 58 54 49 50 53 55 55 56 57 56 59 64 69 72 71 70 71 70 70 70 70 68 68 68 69 71 73 74 74 73 74 74 75 76 78 78 80 83 86 90 93 94 94 91 85 79 77 76 73 68 65 65 66 64 61 61 63 64 64 65 66 68 68 68 68 68
55 54 54 54 55 55 56 58 59 60 62 64 65 64 63 61 61 61 58 54 51 51 53 56 54 53 52 51 53 59 66 69 69 69 70 71 71 71 71 71 69 69 71 72 73 75 76 75 75 76 76 77 79 81 82 84 87 90 93 96 98 97 93 87 81 78 75 72 68 65 64 66 66 64 65 66 65 66 67 68 69 69 69 70 69
57 55 55 56 57 57 58 59 60 61 64 66 66 66 65 63 63 58 51 49 52 54 54 54 50 49 50 51 56 63 66 67 68 70 72 72 72 72 72 71 71 71 73 74 76 77 77 77 77 78 79 80 82 84 87 89 91 94 96 98 100 99 94 88 82 78 74 71 66 63 63 66 67 66 67 68 67 67 67 67 68 68 68 69 69
58 56 56 57 58 58 59 60 61 63 65 67 68 67 66 65 60 50 41 43 53 54 51 50 49 50 54 58 62 65 65 66 70 73 73 72 72 73 73 72 72 73 75 77 78 79 78 78 78 79 81 83 85 87 90 93 95 98 99 100 101 100 94 88 82 78 74 70 66 63 62 65 67 67 68 68 68 68 67 67 66 65 66 67 68
59 56 57 60 60 59 59 61 62 64 66 67 68 67 67 61 49 38 32 39 48 50 46 44 48 54 59 62 63 65 67 70 73 74 73 72 73 74 74 73 74 75 77 79 80 80 80 80 80 82 84 86 88 91 94 97 99 101 102 103 103 99 93 87 82 79 75 72 67 63 62 64 67 67 68 68 67 68 67 66 64 64 64 65 66
60 58 60 62 61 60 61 61 62 64 66 67 67 67 64 51 36 29 33 38 42 45 45 46 50 55 58 61 64 67 71 74 74 73 73 73 74 74 73 74 76 78 80 81 82 82 82 82 82 85 87 89 91 94 97 100 103 104 105 105 103 98 92 86 81 78 76 74 69 65 64 65 66 67 67 68 68 68 67 65 63 62 62 63 63
61 61 62 63 61 60 62 62 62 63 64 66 67 65 57 42 27 27 38 45 45 44 45 48 53 57 60 64 68 72 74 74 73 73 73 73 74 73 74 75 78 81 82 82 83 83 83 84 86 88 90 92 94 97 101 104 106 107 106 105 101 96 90 85 81 77 76 74 70 66 64 64 65 65 65 66 67 67 65 63 62 60 59 58 58
63 64 64 64 62 61 62 62 61 60 62 66 66 58 48 40 32 30 38 47 49 48 49 53 58 61 63 68 72 73 73 72 72 72 72 73 73 73 75 78 81 83 83 84 85 85 85 87 90 92 93 94 97 100 104 106 108 108 107 104 99 94 89 84 80 77 74 73 70 65 62 62 61 61 59 59 61 62 62 59 58 57 55 53 53
Wind_Direction
25 24 24 23 24 28 32 36 39 41 43 42 39 38 38 38 38 37 35 34 34 33 31 29 28 26 24 23 23 23 23 23 23 24 24 24 24 23 22 21 20 19 19 23 29 34 36 32 29 20 342 296 282 279 279 279 279 278 271 262 257 258 261 259 257 260 263 264 260 256 256 253 249 245 244 247 252 262 269 274 280 290 298 299 303
28 25 23 21 23 27 30 34 38 41 43 44 45 45 44 42 40 38 35 32 30 29 27 26 26 26 25 24 23 23 22 21 21 22 22 22 23 23 23 20 19 19 19 19 21 26 30 30 32 30 22 4 329 290 275 276 277 280 277 268 260 257 257 258 257 257 257 261 260 255 253 252 251 247 244 243 244 250 258 267 274 282 290 295 297
29 27 24 22 21 23 26 29 33 37 41 44 45 45 43 41 39 37 34 31 27 25 23 21 21 21 22 21 21 20 20 19 18 19 20 20 20 21 22 21 19 18 19 20 20 21 23 24 28 25 20 18 10 350 305 283 275 275 275 269 264 263 260 256 257 258 255 255 258 258 253 250 248 247 246 243 242 244 249 255 262 270 277 284 291
29 27 24 22 21 20 20 23 26 29 32 36 38 38 37 36 34 32 30 28 25 22 21 18 16 17 17 16 16 15 15 14 14 15 16 17 17 18 19 19 19 17 15 17 19 21 19 16 19 19 17 17 16 11 346 307 280 270 270 270 265 262 264 262 258 257 256 253 254 259 260 256 252 250 248 246 243 242 243 247 252 258 264 270 278
28 25 22 21 19 18 17 19 21 21 19 20 20 21 23 24 25 24 23 22 20 19 19 18 14 13 13 12 12 11 10 9 9 9 10 11 13 14 16 17 17 16 14 13 14 18 20 16 12 10 11 15 18 21 8 341 312 275 260 264 267 262 261 265 262 257 256 255 255 258 263 264 260 255 251 249 247 244 243 244 246 250 255 259 264
26 23 21 19 16 15 16 16 18 18 14 6 0 360 1 4 8 12 13 14 13 13 13 14 13 11 8 8 9 8 5 4 4 4 5 5 6 7 10 13 14 14 13 12 11 13 17 17 12 9 9 9 12 14 11 2 352 317 264 254 259 265 264 262 263 260 259 260 260 259 261 265 264 259 255 251 248 247 247 247 248 249 250 252 254
26 22 20 17 14 13 15 17 18 17 14 5 356 350 347 348 352 357 2 6 7 6 5 6 8 7 5 3 4 5 2 0 360 1 2 3 2 1 2 5 8 11 11 10 10 10 12 13 9 8 9 9 8 6 5 4 3 358 323 268 251 254 262 264 262 262 261 263 264 260 258 260 260 258 256 253 252 252 251 251 252 252 252 252 252
25 21 18 15 14 14 16 17 19 18 16 9 2 356 352 350 350 353 357 1 3 2 0 359 359 1 1 360 359 360 359 357 356 356 358 359 359 358 358 359 0 2 5 7 8 7 7 6 4 4 5 8 9 5 1 360 360 1 359 339 276 248 249 259 263 264 264 260 260 261 259 257 256 254 252 250 251 253 255 254 253 254 256 257 257
22 19 17 15 15 17 18 18 18 17 15 12 7 4 3 3 2 1 360 359 0 1 359 355 354 354 356 357 356 355 355 354 353 352 353 354 354 354 354 355 355 355 356 358 1 3 4 2 358 357 358 2 7 8 4 357 356 357 358 4 354 272 239 246 256 261 263 258 256 259 260 258 256 253 250 247 247 250 254 254 252 253 257 260 261
19 17 16 16 17 18 20 20 20 18 16 13 11 11 11 11 9 5 2 1 1 359 356 353 351 351 352 354 354 354 352 351 352 351 351 350 349 349 350 351 351 351 351 352 353 356 358 358 356 352 351 352 356 3 6 0 357 357 356 2 4 344 254 242 245 249 254 254 252 251 248 249 252 255 256 253 250 251 253 255 255 250 248 256 261
17 16 15 16 17 18 19 21 22 21 18 15 13 12 11 8 5 1 358 356 354 352 351 350 350 350 351 352 353 353 351 350 350 352 351 349 347 346 347 348 348 347 347 347 347 348 350 352 352 350 347 345 344 348 355 359 359 359 359 356 351 345 306 249 239 239 245 250 252 250 245 242 243 250 259 262 260 257 255 259 264 257 246 245 250
17 16 16 17 16 17 18 19 20 20 19 17 14 11 8 4 360 355 352 350 349 349 350 351 352 352 351 351 352 353 353 351 351 353 353 350 348 346 346 346 345 345 344 344 343 342 344 345 346 346 345 341 339 339 340 345 353 357 357 350 341 339 334 286 249 241 239 244 249 250 250 248 244 242 249 259 262 258 254 257 260 259 254 246 243
16 16 16 16 15 15 16 17 18 17 16 14 12 10 8 4 1 357 355 354 354 355 356 357 357 355 353 351 352 353 355 354 353 353 353 352 351 350 349 348 346 344 342 342 341 340 340 340 341 342 342 341 337 336 334 334 338 345 348 345 338 333 333 325 299 262 240 236 241 244 246 249 247 240 239 245 250 250 248 250 252 253 254 250 245
12 14 15 14 14 13 12 13 13 12 11 10 9 8 7 5 4 2 1 1 0 1 1 1 0 359 357 354 353 353 354 355 354 353 353 354 354 353 352 350 349 346 344 342 341 340 339 338 338 337 338 338 336 334 332 329 328 330 333 336 334 327 322 317 315 304 258 237 235 238 241 243 246 243 239 239 241 243 244 243 244 247 252 252 248
6 9 12 13 13 12 10 8 7 6 6 7 7 6 5 4 4 4 3 3 2 3 3 2 2 2 1 358 356 354 352 352 352 352 352 353 354 354 353 352 351 348 346 345 344 342 340 339 337 335 334 335 334 332 330 328 326 323 322 324 326 322 316 307 305 310 294 256 241 240 239 238 242 245 244 243 242 241 242 242 241 241 247 252 252
1 4 7 9 11 11 9 6 3 2 2 3 5 5 4 2 2 3 2 2 1 1 1 1 3 3 3 1 358 355 351 349 349 349 350 351 352 352 351 350 350 349 347 346 345 344 342 341 337 334 332 332 331 329 327 325 324 322 319 316 317 317 313 307 301 300 301 290 266 253 246 240 239 240 242 245 245 243 243 243 242 240 242 248 251
356 358 1 4 7 6 6 4 1 359 360 1 3 3 2 1 360 360 360 360 359 359 359 1 3 4 3 2 359 356 352 349 348 347 346 347 348 349 348 348 347 347 346 346 346 345 344 343 339 335 331 330 328 326 325 323 321 320 318 314 311 311 309 304 299 295 293 293 288 276 262 252 245 242 241 243 245 245 246 245 244 243 243 245 247
351 353 356 359 1 1 1 0 358 357 357 358 359 360 359 358 357 357 357 358 357 358 359 1 3 3 2 360 358 356 353 350 348 346 344 343 344 345 345 345 345 345 345 345 346 346 345 344 341 337 333 329 325 323 322 322 320 318 315 313 309 305 305 302 294 291 290 287 287 286 279 267 257 251 248 246 245 244 244 245 247 247 246 246 246
349 351 353 355 357 357 358 358 357 356 356 355 355 356 357 356 355 354 355 356 357 357 359 0 1 360 358 357 355 354 352 350 349 347 344 342 342 342 342 343 344 343 343 344 344 345 345 344 342 339 334 330 326 321 319 318 317 317 314 311 308 304 302 300 291 284 285 285 283 284 283 280 273 263 256 252 250 247 244 243 243 246 248 248 248
346 349 351 353 353 354 356 357 357 357 355 354 353 354 355 354 353 353 354 355 356 357 358 358 357 357 355 355 354 352 350 349 348 347 345 343 342 341 341 341 342 342 342 342 342 343 343 343 342 340 337 333 329 323 318 315 314 315 315 312 308 304 301 299 290 277 276 281 280 278 280 280 280 277 270 261 255 252 249 245 242 241 243 246 248
344 347 350 350 350 351 352 353 355 356 355 354 353 353 352 352 352 352 353 353 354 356 356 354 353 352 352 353 353 351 349 347 346 346 345 344 342 341 340 339 340 340 339 340 340 341 341 342 341 340 338 335 331 327 322 316 313 313 315 315 312 308 303 300 295 280 269 271 276 277 276 275 277 279 279 275 268 260 255 251 247 243 241 241 243
341 344 346 347 347 348 347 348 351 353 353 352 351 350 349 351 352 352 351 351 352 353 353 351 349 349 350 350 350 350 348 346 345 344 343 343 341 340 340 339 339 339 338 339 339 340 340 340 340 339 339 336 331 328 326 321 318 315 315 315 314 312 308 302 298 289 274 264 267 273 275 274 274 274 275 276 276 272 266 259 253 248 245 243 241
337 339 341 343 344 345 344 345 347 349 349 348 347 347 348 350 351 351 351 350 350 350 351 351 349 348 348 348 348 348 347 345 343 342 342 342 341 341 341 340 340 339 338 338 337 339 339 339 339 338 339 339 335 329 327 325 322 320 318 317 315 314 312 307 300 295 284 270 262 263 269 272 274 273 272 272 273 273 272 269 264 257 250 246 244
334 337 338 339 341 342 342 342 344 344 344 344 344 344 346 348 349 350 350 349 348 348 349 349 349 348 348 347 346 345 344 343 342 342 342 342 342 342 341 341 340 340 339 338 337 337 338 339 339 338 337 337 335 331 329 327 324 322 320 319 317 314 312 309 304 298 291 279 267 261 261 265 269 271 272 271 271 270 270 269 269 266 261 253 247
331 334 336 337 338 340 340 340 341 341 341 342 342 343 344 345 346 348 348 347 346 346 346 347 347 347 347 346 344 343 343 342 341 342 343 344 344 342 342 341 340 340 340 339 338 337 337 337 336 336 334 333 332 330 329 327 325 322 320 318 317 314 311 309 305 300 294 286 276 266 262 261 262 265 269 270 270 270 269 268 267 266 265 262 257
328 332 334 335 336 338 338 338 339 339 339 340 341 342 343 343 345 345 345 344 343 343 344 345 346 347 346 346 345 344 344 343 342 342 343 344 345 344 343 341 340 339 339 339 338 337 335 334 334 333 332 330 328 327 327 327 325 323 320 317 315 313 310 307 304 300 295 290 283 275 267 263 261 260 261 263 265 267 268 268 267 266 264 263 263
325 329 331 332 334 336 337 336 337 337 338 339 341 342 342 343 344 344 343 342 341 341 341 342 343 345 344 345 345 345 345 344 342 340 340 341 342 343 342 341 339 338 337 337 336 336 335 334 333 332 330 329 327 325 324 324 325 324 320 317 314 312 310 306 303 300 295 289 285 280 274 268 264 261 258 258 259 261 262 264 266 266 265 263 262
322 325 327 329 332 334 335 335 334 335 336 338 339 340 341 342 342 342 341 340 339 338 337 338 341 342 342 342 344 345 345 344 342 340 339 338 339 340 340 339 338 337 336 335 335 335 335 334 332 331 330 329 327 325 323 321 322 322 321 318 314 312 309 306 303 299 295 291 286 282 278 273 268 264 260 259 258 258 258 259 260 262 264 264 263
318 321 324 327 329 332 332 332 331 332 334 335 336 337 338 338 338 339 338 338 338 338 335 334 336 340 340 340 342 343 343 342 342 341 339 337 337 337 337 337 337 337 335 334 333 333 332 332 331 330 329 328 326 324 321 319 318 319 319 317 315 311 308 306 303 298 295 292 288 283 279 276 272 268 264 261 260 259 257 257 257 258 260 262 263
314 317 320 322 325 327 328 328 329 329 331 333 333 333 333 334 335 336 336 336 338 339 336 332 331 335 337 338 340 341 341 341 341 342 341 339 337 337 336 336 337 336 335 334 332 331 331 330 330 329 328 326 325 322 320 318 317 317 316 316 314 311 308 305 302 298 294 291 288 285 280 277 274 272 269 266 263 261 259 258 256 255 255 257 260
312 315 317 319 321 323 324 325 326 328 330 331 331 331 331 332 332 334 334 334 335 337 336 331 329 331 333 337 339 340 341 341 340 340 341 340 338 337 336 336 336 336 335 334 332 330 330 329 328 328 327 325 323 321 319 318 317 316 315 315 314 312 310 307 303 299 295 290 286 283 280 276 273 271 269 268 266 263 261 259 257 255 253 253 254
311 313 314 316 317 319 320 322 324 327 328 329 329 329 329 329 330 331 331 331 331 332 331 329 328 330 332 334 337 339 340 340 338 338 338 338 337 336 334 334 335 334 334 333 332 330 329 329 328 327 326 325 323 321 319 318 317 316 315 315 314 313 310 307 304 300 297 293 288 283 279 275 272 270 268 266 266 264 262 260 259 257 254 252 250
307 310 312 312 314 316 317 319 323 325 327 327 328 328 328 328 328 329 329 329 329 328 328 327 327 328 329 332 335 337 337 336 336 336 335 335 334 333 333 333 332 333 333 332 332 331 330 329 328 327 326 324 323 321 320 319 317 316 316 315 315 313 310 307 303 300 297 294 291 286 282 277 274 271 268 265 264 263 262 261 259 258 256 254 250
302 307 309 310 311 314 315 317 320 322 324 325 325 326 326 326 326 327 327 326 326 326 326 325 325 326 327 329 333 334 333 332 333 334 333 333 332 332 332 332 331 331 331 331 330 331 330 330 329 327 326 325 324 322 321 319 318 317 317 316 315 313 310 307 303 300 297 294 291 288 284 281 277 273 270 267 264 262 260 260 260 259 257 256 253
297 303 306 307 309 311 313 315 317 318 320 321 322 323 323 324 324 325 324 324 323 322 323 324 324 324 324 327 331 332 330 329 331 333 333 332 331 331 331 331 331 331 330 330 329 329 330 329 329 328 326 325 324 323 322 320 319 319 319 318 316 313 310 308 305 302 299 295 291 288 285 282 279 275 272 269 266 263 261 259 259 259 258 257 255
293 300 302 304 307 309 310 312 314 316 316 318 319 320 321 322 322 323 322 322 321 321 322 324 324 323 324 327 331 331 328 328 330 333 334 332 331 330 331 331 331 331 330 329 328 328 328 328 328 328 327 325 324 324 324 323 322 323 323 321 318 314 311 309 305 303 300 298 294 291 288 285 282 278 275 271 269 266 263 260 258 257 257 257 256
292 297 299 301 304 306 307 309 312 313 314 315 316 317 318 319 320 321 322 321 321 323 324 324 324 324 323 325 328 329 328 328 330 331 332 331 330 330 331 331 331 330 330 329 328 327 327 327 327 327 327 326 325 326 326 325 326 328 327 324 319 315 312 309 306 303 300 298 296 293 291 288 285 282 279 275 272 269 266 264 261 259 256 255 255
291 294 296 299 301 303 304 306 309 310 311 311 312 313 315 317 319 320 320 320 321 323 324 324 323 321 320 322 327 328 328 328 327 327 329 329 329 329 330 330 330 330 330 329 328 327 326 326 327 327 327 327 327 327 327 328 330 332 331 327 321 317 314 310 306 303 300 298 296 294 292 289 287 286 284 281 277 273 269 266 264 262 259 257 255
290 292 295 297 299 300 302 304 306 307 307 308 309 311 313 315 317 318 319 320 321 323 323 322 321 320 319 322 326 327 326 325 325 326 328 328 327 328 329 329 329 329 329 328 326 326 326 326 327 327 327 327 328 328 328 330 333 334 334 332 326 322 318 314 309 305 302 299 296 293 290 288 287 286 285 284 282 278 275 270 265 261 259 258 257
289 291 293 295 296 298 300 302 304 304 305 306 307 310 312 314 316 317 318 320 322 322 321 321 322 322 319 319 322 323 322 322 324 327 327 326 326 327 328 329 329 328 327 326 325 325 325 326 327 327 327 327 328 328 329 330 333 335 335 334 331 326 323 319 314 310 307 304 299 295 291 288 286 285 284 283 282 280 277 274 268 263 259 257 257
289 290 292 293 295 297 299 301 302 302 304 305 306 309 311 313 315 316 318 321 322 320 319 321 322 320 316 313 315 317 319 321 324 326 325 324 325 326 327 327 327 326 326 325 325 325 325 326 327 328 328 328 329 329 329 330 333 334 334 333 332 328 325 321 317 313 310 308 304 300 295 291 288 285 283 282 280 278 276 274 271 268 264 262 260
288 289 291 292 294 296 298 300 301 302 303 305 306 308 310 313 315 316 319 321 321 318 317 318 317 314 310 309 311 314 317 321 323 323 323 323 324 325 326 326 325 325 325 324 325 325 326 327 327 328 329 329 329 329 330 331 331 332 331 331 331 329 325 321 316 312 310 308 306 303 299 295 291 288 285 282 280 278 276 274 272 270 268 267 264
287 288 290 292 294 296 297 299 300 302 303 305 306 308 311 313 314 317 319 320 320 319 316 314 313 310 308 309 311 313 315 317 320 320 321 323 324 325 325 325 325 325 324 324 325 326 327 327 328 329 330 330 330 330 330 330 330 330 330 330 330 329 326 321 316 311 308 307 306 303 298 295 292 289 286 284 282 280 278 275 273 272 271 269 267
285 287 288 290 292 295 296 298 299 302 303 304 306 308 310 312 313 317 320 319 318 316 311 308 308 307 307 310 310 309 311 314 317 318 320 322 324 324 324 324 325 325 324 324 325 327 327 328 328 329 330 330 329 329 329 329 329 329 330 329 329 328 326 322 316 311 307 306 304 301 297 293 291 288 285 283 282 280 279 276 274 273 271 270 268
284 285 287 289 292 293 294 296 299 301 302 304 306 308 310 312 314 319 322 315 309 307 303 303 305 305 306 307 305 306 311 314 315 317 321 324 325 325 325 325 324 324 324 325 326 327 328 329 329 329 330 329 329 328 328 329 329 329 329 328 328 327 326 322 317 312 308 305 303 300 296 293 291 289 286 283 282 280 278 276 274 273 271 270 269
282 284 286 289 291 292 294 297 299 301 302 305 307 308 310 313 316 321 323 311 300 299 298 299 302 302 302 303 305 308 311 313 315 320 324 326 326 325 324 324 324 324 324 326 327 328 328 329 329 329 329 329 328 328 329 330 330 329 328 327 327 326 325 322 317 313 309 306 304 301 296 293 291 289 286 285 283 281 279 276 274 272 271 270 269
282 283 286 288 289 291 295 297 299 301 304 306 308 310 312 315 318 322 320 304 294 294 298 300 301 300 301 305 308 310 312 315 319 324 326 326 325 324 323 323 323 324 325 326 328 329 329 329 329 328 328 328 328 329 329 329 329 328 327 326 326 325 324 322 318 314 311 308 305 302 297 293 291 289 287 285 284 281 279 276 274 272 270 269 267
281 283 285 287 289 292 295 298 300 303 305 308 310 311 313 316 320 320 309 294 292 297 299 295 292 295 299 304 308 311 315 319 323 326 326 325 323 322 322 322 323 324 326 327 328 329 329 329 328 328 328 328 328 329 330 329 329 328 327 326 326 325 324 322 319 315 312 309 306 303 299 294 291 290 288 286 284 281 279 277 275 272 270 267 266
280 282 284 286 288 292 295 298 302 305 306 309 311 313 313 315 320 319 307 298 299 302 298 292 290 294 300 305 310 315 319 323 325 326 324 323 321 321 321 321 323 325 327 328 329 329 329 329 328 328 327 328 329 330 330 329 328 327 327 326 326 325 324 322 319 315 312 309 306 304 300 295 292 290 288 286 284 282 280 278 276 272 269 267 265
280 281 283 285 288 292 295 299 303 306 308 311 312 312 312 312 316 320 310 302 299 295 290 291 294 298 303 308 313 318 321 324 325 323 321 320 320 320 321 322 325 326 328 329 329 329 329 329 328 328 328 328 329 330 330 329 328 328 327 327 327 326 324 322 319 315 311 308 306 304 300 296 292 289 287 285 284 282 281 279 277 273 270 267 265
279 280 282 285 288 292 295 299 305 308 310 312 311 311 311 308 309 312 304 299 299 296 291 292 296 300 305 312 317 321 323 323 321 319 318 319 320 321 322 324 326 327 328 329 329 330 329 328 328 328 328 329 329 330 329 329 328 328 328 328 327 326 324 322 319 315 312 308 307 305 301 296 293 290 287 285 284 283 282 280 278 275 272 269 266
Height
10973 10972 10971 10970 10969 10968 10967 10966 10965 10965 10964 10963 10963 10962 10961 10960 10958 10957 10956 10954 10953 10952 10950 10948 10947 10946 10944 10943 10941 10939 10938 10937 10935 10933 10932 10930 10929 10927 10926 10924 10923 10922 10920 10918 10917 10916 10914 10913 10912 10912 10912 10913 10913 10913 10913 10913 10913 10913 10913 10914 10915 10915 10916 10917 10917 10917 10917 10917 10917 10917 10917 10917 10917 10917 10917 10917 10917 10917 10917 10917 10917 10917 10917 10917 10916
10974 10973 10971 10971 10970 10969 10968 10967 10967 10966 10965 10964 10963 10963 10962 10960 10959 10957 10956 10955 10954 10953 10951 10949 10948 10947 10945 10943 10941 10939 10938 10937 10936 10935 10933 10931 10930 10929 10927 10925 10924 10923 10921 10919 10918 10917 10916 10913 10912 10912 10911 10911 10911 10911 10911 10912 10912 10913 10912 10912 10913 10914 10914 10915 10916 10916 10916 10916 10916 10915 10915 10916 10916 10916 10916 10916 10916 10917 10917 10917 10917 10917 10917 10917 10917
10974 10973 10972 10971 10970 10970 10969 10968 10968 10967 10966 10965 10964 10963 10962 10961 10959 10958 10957 10955 10954 10953 10952 10950 10949 10947 10944 10943 10941 10940 10939 10938 10936 10935 10934 10932 10931 10930 10928 10926 10925 10923 10922 10921 10919 10919 10917 10915 10913 10913 10912 10912 10911 10910 10910 10911 10911 10911 10911 10911 10912 10912 10913 10913 10914 10914 10915 10915 10915 10914 10914 10914 10914 10914 10914 10915 10915 10915 10915 10916 10916 10916 10917 10917 10917
10975 10974 10973 10972 10971 10970 10970 10969 10969 10968 10967 10966 10965 10964 10963 10962 10960 10959 10958 10957 10955 10954 10952 10950 10948 10946 10944 10943 10942 10940 10939 10938 10937 10935 10934 10933 10932 10930 10929 10927 10926 10924 10923 10922 10920 10919 10918 10917 10915 10914 10913 10913 10914 10912 10909 10908 10909 10909 10909 10910 10910 10911 10911 10912 10912 10913 10913 10914 10914 10914 10913 10913 10913 10913 10913 10914 10914 10914 10914 10914 10914 10915 10915 10916 10916
10976 10975 10974 10973 10972 10971 10970 10969 10969 10968 10967 10966 10966 10965 10963 10962 10961 10960 10959 10958 10956 10955 10953 10951 10948 10946 10944 10943 10942 10940 10939 10938 10937 10935 10934 10933 10932 10930 10929 10928 10927 10925 10924 10922 10921 10920 10919 10917 10916 10915 10914 10914 10914 10912 10909 10907 10907 10908 10908 10908 10908 10909 10909 10910 10911 10911 10912 10913 10913 10913 10913 10913 10912 10912 10912 10912 10913 10913 10913 10913 10913 10913 10913 10914 10915
10977 10976 10975 10973 10972 10971 10971 10970 10969 10968 10967 10967 10966 10964 10963 10962 10962 10961 10960 10958 10957 10955 10953 10951 10950 10947 10945 10944 10943 10941 10940 10939 10937 10936 10934 10932 10931 10930 10929 10928 10927 10925 10924 10923 10921 10920 10919 10917 10916 10915 10913 10913 10912 10911 10909 10908 10907 10906 10906 10906 10907 10907 10907 10908 10909 10910 10912 10913 10913 10913 10912 10912 10912 10912 10911 10911 10911 10912 10912 10912 10912 10911 10911 10912 10912
10978 10977 10976 10974 10973 10972 10971 10970 10969 10968 10968 10967 10966 10965 10964 10963 10962 10961 10960 10958 10956 10955 10953 10951 10950 10949 10947 10945 10944 10942 10941 10939 10937 10936 10934 10932 10931 10930 10929 10927 10926 10925 10924 10923 10921 10920 10919 10917 10916 10914 10913 10912 10911 10910 10909 10907 10906 10905 10905 10904 10904 10905 10906 10906 10908 10910 10912 10913 10912 10911 10911 10911 10910 10910 10910 10910 10911 10911 10911 10911 10911 10910 10910 10910 10910
10978 10978 10977 10975 10974 10973 10972 10970 10969 10969 10968 10967 10966 10965 10964 10963 10962 10960 10959 10958 10956 10954 10952 10950 10949 10948 10947 10945 10943 10942 10941 10939 10937 10936 10934 10933 10931 10929 10928 10926 10925 10924 10923 10922 10921 10920 10919 10917 10916 10914 10913 10912 10911 10910 10908 10907 10906 10905 10904 10903 10902 10902 10904 10905 10907 10909 10911 10911 10909 10908 10909 10909 10908 10908 10908 10909 10910 10910 10910 10909 10909 10909 10910 10909 10909
10978 10978 10977 10976 10975 10974 10973 10971 10970 10969 10968 10968 10967 10966 10964 10963 10962 10960 10959 10958 10956 10954 10952 10950 10949 10947 10946 10945 10943 10942 10940 10939 10937 10935 10934 10932 10931 10929 10927 10926 10924 10922 10921 10920 10919 10918 10918 10917 10915 10914 10913 10912 10911 10909 10907 10906 10905 10905 10903 10902 10900 10899 10900 10903 10906 10909 10910 10909 10907 10907 10908 10908 10907 10906 10907 10908 10908 10908 10908 10908 10908 10908 10908 10908 10909
10978 10977 10977 10976 10975 10974 10973 10972 10971 10970 10969 10968 10967 10966 10965 10964 10962 10961 10960 10958 10956 10954 10952 10951 10949 10947 10946 10945 10943 10942 10940 10938 10936 10935 10933 10932 10930 10928 10927 10925 10923 10921 10920 10919 10918 10917 10916 10915 10914 10913 10912 10911 10910 10909 10908 10906 10906 10905 10904 10902 10900 10897 10898 10900 10904 10907 10908 10908 10906 10905 10906 10906 10906 10905 10905 10906 10906 10905 10906 10906 10906 10906 10906 10906 10907
10978 10977 10977 10976 10975 10974 10973 10972 10972 10971 10970 10969 10968 10967 10966 10965 10964 10962 10960 10958 10956 10954 10952 10950 10949 10947 10945 10944 10943 10941 10939 10937 10936 10935 10933 10931 10929 10928 10926 10924 10922 10920 10919 10917 10916 10915 10914 10913 10912 10911 10910 10909 10909 10908 10907 10906 10906 10905 10904 10903 10900 10898 10898 10898 10900 10903 10905 10905 10904 10903 10903 10903 10904 10904 10904 10903 10903 10904 10904 10903 10903 10903 10903 10904 10904
10978 10978 10977 10976 10975 10975 10974 10973 10972 10972 10971 10970 10969 10968 10967 10966 10964 10962 10961 10958 10956 10954 10952 10950 10948 10946 10944 10943 10942 10940 10939 10937 10935 10934 10932 10931 10929 10927 10925 10923 10922 10920 10918 10916 10914 10913 10912 10911 10910 10909 10908 10907 10907 10906 10906 10905 10904 10903 10903 10902 10901 10898 10897 10896 10897 10898 10900 10901 10900 10899 10899 10900 10902 10902 10901 10901 10901 10902 10902 10902 10901 10901 10901 10902 10902
10979 10978 10978 10977 10976 10976 10975 10974 10973 10973 10972 10971 10970 10968 10967 10966 10964 10962 10960 10958 10956 10954 10951 10949 10947 10945 10944 10942 10940 10939 10938 10936 10934 10933 10931 10930 10929 10926 10924 10922 10920 10918 10916 10915 10913 10911 10910 10909 10908 10907 10906 10905 10904 10903 10903 10902 10902 10901 10901 10900 10899 10898 10896 10894 10894 10894 10895 10895 10895 10894 10895 10897 10898 10897 10896 10896 10897 10898 10899 10899 10899 10898 10898 10899 10900
10980 10979 10979 10978 10977 10977 10976 10975 10974 10973 10973 10972 10970 10969 10967 10965 10964 10962 10960 10958 10955 10953 10951 10949 10947 10945 10944 10942 10940 10938 10937 10936 10934 10932 10931 10929 10928 10926 10924 10921 10919 10917 10915 10914 10912 10910 10909 10907 10905 10904 10903 10902 10900 10900 10899 10899 10899 10899 10898 10898 10897 10896 10895 10894 10893 10892 10891 10891 10890 10889 10890 10892 10892 10891 10890 10890 10892 10894 10894 10894 10895 10895 10895 10896 10897
10980 10980 10979 10979 10978 10977 10976 10975 10975 10974 10973 10972 10970 10968 10966 10964 10963 10961 10959 10957 10955 10952 10951 10949 10947 10945 10943 10941 10939 10937 10936 10934 10933 10931 10930 10928 10926 10925 10923 10920 10918 10916 10914 10912 10910 10909 10907 10905 10904 10902 10901 10900 10898 10896 10896 10895 10895 10895 10895 10895 10894 10893 10893 10892 10892 10891 10889 10888 10887 10886 10886 10887 10886 10885 10885 10885 10887 10889 10890 10890 10891 10892 10893 10893 10894
10981 10980 10980 10979 10978 10977 10976 10976 10974 10973 10972 10971 10969 10967 10965 10963 10962 10960 10958 10956 10954 10952 10950 10948 10946 10944 10942 10940 10939 10937 10935 10933 10932 10930 10929 10927 10925 10924 10921 10919 10917 10915 10913 10910 10908 10907 10905 10903 10902 10900 10899 10898 10896 10894 10893 10892 10891 10891 10891 10891 10891 10890 10890 10889 10889 10888 10887 10886 10885 10883 10882 10882 10881 10880 10879 10879 10881 10884 10886 10886 10887 10888 10890 10890 10890
10981 10980 10980 10979 10978 10977 10976 10975 10974 10973 10971 10970 10968 10967 10965 10963 10961 10959 10957 10956 10954 10952 10950 10948 10946 10944 10942 10940 10938 10936 10934 10932 10931 10929 10927 10926 10925 10923 10921 10919 10916 10914 10912 10910 10907 10905 10903 10902 10899 10897 10896 10895 10894 10893 10891 10889 10887 10887 10887 10887 10886 10886 10886 10885 10885 10884 10884 10883 10882 10881 10880 10878 10877 10877 10876 10875 10877 10879 10881 10882 10883 10884 10886 10887 10887
10981 10980 10980 10979 10978 10976 10976 10975 10973 10972 10970 10968 10967 10966 10965 10963 10961 10959 10957 10956 10954 10951 10949 10947 10945 10943 10941 10939 10937 10936 10934 10932 10930 10928 10926 10924 10922 10921 10920 10919 10916 10913 10911 10909 10907 10905 10902 10900 10898 10895 10893 10892 10891 10889 10888 10887 10885 10883 10882 10882 10882 10882 10882 10882 10881 10880 10880 10879 10878 10878 10877 10876 10874 10873 10873 10872 10872 10874 10876 10878 10879 10880 10881 10882 10883
10981 10980 10979 10978 10977 10976 10975 10974 10972 10971 10969 10968 10967 10966 10964 10963 10961 10959 10957 10956 10954 10951 10949 10947 10945 10943 10941 10939 10936 10934 10933 10931 10930 10928 10926 10923 10921 10919 10918 10916 10914 10912 10910 10907 10905 10903 10901 10899 10897 10894 10892 10890 10888 10886 10884 10883 10882 10881 10880 10878 10877 10877 10876 10877 10877 10876 10875 10875 10874 10873 10873 10872 10871 10871 10870 10869 10869 10869 10871 10873 10874 10875 10876 10877 10878
10980 10979 10978 10977 10976 10975 10974 10973 10972 10970 10969 10968 10966 10965 10964 10963 10961 10959 10957 10955 10953 10951 10949 10947 10945 10943 10941 10938 10936 10933 10931 10930 10929 10927 10925 10923 10921 10918 10916 10914 10912 10910 10908 10906 10904 10902 10900 10898 10896 10893 10891 10888 10887 10885 10882 10880 10878 10877 10876 10875 10874 10872 10871 10871 10871 10871 10871 10870 10870 10869 10869 10868 10868 10867 10866 10866 10865 10865 10866 10867 10868 10870 10871 10872 10873
10979 10978 10977 10976 10975 10974 10973 10972 10971 10970 10968 10967 10966 10964 10963 10962 10961 10959 10956 10955 10953 10951 10949 10946 10944 10942 10940 10937 10935 10932 10930 10928 10926 10925 10924 10922 10920 10918 10916 10914 10911 10908 10905 10903 10901 10900 10898 10896 10894 10892 10889 10887 10884 10883 10881 10878 10875 10873 10871 10871 10870 10869 10867 10866 10866 10866 10866 10866 10865 10865 10864 10864 10863 10863 10862 10862 10862 10861 10861 10862 10862 10864 10865 10866 10867
10978 10977 10976 10976 10974 10973 10972 10971 10970 10969 10968 10966 10965 10964 10963 10962 10960 10958 10956 10954 10952 10950 10948 10945 10943 10941 10938 10936 10934 10931 10929 10927 10925 10923 10922 10921 10919 10917 10915 10913 10910 10907 10903 10900 10898 10896 10895 10893 10891 10889 10888 10885 10883 10881 10879 10877 10875 10872 10869 10867 10866 10865 10864 10862 10861 10860 10860 10860 10860 10860 10859 10859 10859 10858 10858 10858 10857 10857 10857 10857 10857 10858 10859 10860 10861
10976 10976 10975 10974 10973 10973 10971 10970 10969 10968 10967 10966 10964 10963 10962 10960 10959 10957 10955 10953 10951 10948 10946 10944 10942 10940 10937 10935 10933 10930 10928 10926 10923 10922 10920 10919 10917 10915 10912 10910 10908 10905 10902 10898 10896 10894 10892 10890 10888 10886 10885 10883 10881 10879 10877 10875 10873 10871 10868 10865 10863 10860 10859 10858 10856 10855 10855 10855 10855 10855 10855 10854 10854 10853 10854 10854 10854 10853 10853 10852 10852 10853 10853 10854 10855
10975 10974 10974 10973 10972 10971 10970 10969 10968 10966 10965 10964 10963 10961 10960 10958 10957 10955 10953 10951 10949 10947 10944 10943 10941 10939 10937 10935 10932 10930 10927 10924 10922 10920 10919 10917 10915 10912 10910 10908 10906 10904 10902 10898 10895 10892 10889 10887 10884 10882 10880 10879 10878 10876 10874 10872 10870 10867 10865 10863 10861 10858 10855 10853 10852 10850 10850 10850 10850 10849 10849 10849 10849 10849 10848 10848 10849 10849 10849 10848 10848 10848 10848 10849 10849
10973 10973 10972 10971 10970 10970 10968 10967 10966 10964 10963 10962 10960 10959 10957 10956 10955 10953 10951 10949 10947 10945 10942 10941 10939 10937 10936 10934 10932 10930 10927 10924 10921 10918 10916 10914 10912 10910 10908 10906 10904 10902 10900 10897 10894 10890 10888 10885 10883 10880 10877 10875 10873 10872 10870 10868 10866 10864 10862 10860 10858 10855 10852 10850 10847 10845 10844 10844 10844 10844 10844 10844 10844 10844 10843 10843 10843 10844 10844 10844 10844 10843 10843 10843 10844
10971 10971 10970 10969 10969 10968 10967 10965 10964 10962 10961 10960 10958 10957 10955 10954 10952 10950 10948 10947 10944 10942 10940 10938 10936 10935 10933 10932 10930 10928 10926 10923 10920 10917 10914 10911 10909 10906 10904 10901 10899 10898 10896 10894 10892 10889 10887 10884 10881 10878 10875 10872 10870 10868 10866 10865 10863 10861 10858 10856 10854 10851 10849 10847 10844 10841 10839 10838 10837 10837 10837 10837 10837 10837 10837 10837 10838 10838 10838 10838 10839 10838 10838 10838 10838
10969 10969 10968 10967 10966 10966 10965 10963 10961 10960 10959 10957 10956 10954 10953 10951 10949 10947 10946 10944 10942 10940 10937 10935 10933 10931 10930 10929 10927 10926 10923 10921 10919 10916 10914 10911 10907 10904 10901 10898 10895 10892 10890 10888 10887 10885 10883 10880 10877 10875 10872 10870 10867 10864 10862 10860 10858 10856 10854 10852 10849 10847 10845 10843 10840 10838 10836 10833 10831 10830 10830 10830 10830 10830 10830 10831 10831 10832 10832 10832 10832 10833 10833 10833 10834
10967 10966 10965 10964 10963 10963 10962 10961 10959 10958 10956 10955 10953 10952 10950 10948 10946 10945 10943 10941 10939 10936 10934 10932 10930 10928 10927 10926 10924 10922 10920 10918 10916 10914 10912 10909 10907 10903 10900 10896 10893 10889 10886 10883 10881 10879 10877 10875 10872 10870 10868 10866 10863 10861 10858 10856 10853 10851 10849 10847 10844 10842 10839 10838 10836 10833 10831 10829 10827 10825 10824 10823 10823 10823 10823 10824 10825 10825 10825 10825 10825 10826 10826 10827 10828
10964 10963 10962 10961 10960 10960 10959 10958 10956 10955 10954 10952 10951 10949 10947 10946 10944 10942 10940 10938 10935 10933 10931 10929 10927 10925 10923 10922 10920 10919 10917 10915 10913 10911 10908 10906 10904 10902 10899 10896 10892 10888 10885 10881 10878 10875 10873 10871 10868 10865 10863 10861 10859 10856 10854 10852 10849 10847 10844 10842 10839 10837 10835 10832 10830 10828 10826 10824 10822 10820 10818 10817 10816 10815 10815 10816 10816 10817 10818 10818 10818 10818 10819 10820 10821
10961 10959 10958 10958 10957 10956 10956 10955 10954 10952 10951 10950 10948 10947 10945 10943 10942 10940 10938 10935 10933 10930 10927 10925 10924 10922 10920 10918 10917 10915 10913 10911 10909 10907 10905 10903 10901 10899 10896 10894 10891 10887 10884 10880 10877 10873 10870 10867 10865 10862 10859 10856 10854 10852 10849 10846 10844 10841 10839 10836 10834 10831 10829 10827 10825 10823 10820 10818 10817 10815 10813 10811 10810 10808 10808 10807 10807 10808 10809 10810 10810 10810 10811 10812 10813
10957 10956 10955 10954 10954 10953 10952 10951 10951 10950 10948 10947 10946 10944 10943 10941 10939 10937 10935 10932 10930 10927 10925 10923 10921 10919 10917 10915 10913 10911 10908 10906 10903 10901 10899 10897 10895 10893 10891 10889 10887 10885 10882 10879 10875 10871 10868 10865 10862 10859 10856 10852 10849 10846 10843 10840 10837 10834 10831 10829 10826 10824 10821 10819 10817 10815 10814 10812 10810 10808 10807 10805 10803 10802 10801 10800 10799 10799 10799 10800 10801 10801 10802 10803 10804
10954 10953 10952 10951 10951 10950 10949 10948 10948 10947 10945 10944 10942 10941 10939 10938 10936 10934 10932 10929 10927 10925 10923 10921 10918 10916 10913 10911 10909 10907 10905 10901 10898 10895 10893 10890 10888 10886 10885 10883 10881 10879 10876 10874 10870 10866 10863 10860 10857 10854 10851 10848 10844 10840 10837 10834 10830 10826 10822 10820 10817 10815 10812 10810 10807 10806 10804 10803 10802 10801 10799 10798 10796 10795 10793 10792 10791 10790 10790 10790 10790 10791 10793 10794 10795
10950 10949 10948 10948 10948 10947 10946 10945 10945 10944 10942 10941 10939 10937 10935 10934 10932 10931 10929 10926 10924 10922 10920 10918 10916 10913 10910 10908 10906 10903 10901 10897 10894 10890 10887 10885 10883 10881 10878 10876 10873 10871 10869 10866 10864 10861 10857 10853 10850 10847 10844 10841 10838 10834 10830 10827 10823 10818 10814 10810 10807 10804 10802 10800 10797 10796 10794 10793 10791 10790 10789 10788 10787 10786 10785 10783 10782 10781 10781 10781 10781 10781 10782 10783 10785
10947 10946 10945 10945 10944 10943 10943 10942 10942 10941 10940 10938 10935 10933 10931 10930 10928 10927 10926 10923 10921 10919 10917 10915 10912 10910 10907 10904 10902 10899 10896 10893 10890 10887 10884 10881 10879 10876 10873 10871 10868 10865 10862 10859 10856 10854 10851 10847 10844 10840 10837 10834 10831 10828 10823 10819 10815 10811 10806 10802 10798 10794 10791 10789 10787 10786 10785 10783 10781 10779 10778 10777 10776 10776 10774 10774 10773 10772 10771 10771 10771 10771 10772 10773 10774
10943 10942 10942 10941 10941 10940 10939 10939 10939 10938 10937 10935 10933 10931 10928 10927 10925 10924 10922 10919 10917 10915 10913 10911 10908 10905 10903 10900 10897 10894 10891 10889 10886 10884 10881 10878 10875 10872 10869 10866 10863 10860 10856 10853 10849 10847 10845 10842 10838 10835 10831 10828 10825 10822 10818 10812 10807 10803 10798 10794 10789 10785 10782 10779 10776 10774 10773 10773 10771 10770 10768 10767 10765 10764 10763 10762 10762 10762 10762 10761 10761 10760 10761 10762 10763
10939 10939 10938 10938 10938 10937 10936 10936 10935 10935 10934 10932 10931 10928 10926 10924 10922 10920 10918 10915 10912 10910 10908 10905 10902 10899 10897 10894 10892 10889 10886 10884 10881 10878 10876 10873 10870 10868 10864 10861 10857 10853 10849 10846 10842 10839 10837 10835 10832 10829 10826 10822 10819 10816 10812 10807 10801 10796 10790 10785 10780 10776 10773 10770 10767 10764 10761 10760 10759 10758 10757 10756 10755 10754 10753 10752 10751 10751 10751 10750 10750 10750 10750 10750 10750
10936 10935 10935 10935 10934 10934 10933 10932 10932 10931 10931 10930 10928 10926 10924 10923 10920 10917 10914 10910 10907 10905 10902 10899 10895 10892 10890 10888 10885 10883 10881 10878 10875 10872 10870 10868 10865 10862 10858 10854 10851 10847 10843 10839 10835 10832 10828 10826 10824 10822 10819 10815 10812 10809 10806 10802 10796 10791 10785 10779 10773 10768 10765 10761 10758 10754 10751 10749 10747 10746 10744 10742 10741 10741 10741 10742 10742 10741 10740 10739 10739 10739 10738 10738 10738
10932 10932 10931 10931 10931 10930 10929 10929 10928 10928 10927 10926 10925 10923 10922 10920 10917 10914 10910 10906 10903 10900 10897 10893 10889 10886 10883 10881 10879 10877 10874 10872 10869 10867 10865 10863 10860 10856 10852 10848 10844 10840 10836 10832 10828 10825 10821 10817 10814 10812 10810 10807 10804 10801 10798 10795 10790 10784 10779 10773 10767 10763 10760 10755 10750 10746 10744 10740 10737 10735 10733 10730 10728 10727 10726 10727 10729 10729 10729 10728 10728 10727 10725 10725 10725
10928 10928 10928 10927 10927 10926 10925 10924 10924 10924 10923 10922 10921 10920 10918 10916 10914 10911 10907 10904 10900 10896 10892 10888 10883 10880 10877 10875 10873 10871 10869 10867 10865 10862 10860 10857 10854 10851 10847 10843 10838 10834 10830 10827 10823 10819 10815 10811 10807 10803 10800 10797 10795 10792 10789 10786 10782 10776 10772 10767 10761 10756 10754 10750 10744 10740 10737 10734 10731 10727 10724 10721 10719 10716 10715 10714 10713 10714 10715 10717 10716 10714 10713 10712 10713
10924 10924 10924 10923 10923 10922 10920 10920 10919 10919 10918 10918 10917 10916 10914 10912 10910 10907 10903 10900 10896 10891 10886 10882 10878 10874 10871 10870 10868 10865 10864 10862 10860 10858 10855 10852 10849 10845 10841 10837 10833 10829 10825 10822 10818 10814 10810 10806 10802 10797 10792 10788 10785 10782 10779 10776 10772 10768 10764 10761 10755 10749 10745 10741 10736 10732 10730 10727 10724 10721 10717 10713 10711 10708 10707 10705 10702 10701 10702 10703 10702 10701 10701 10701 10701
10920 10920 10920 10919 10918 10917 10916 10915 10914 10914 10913 10912 10912 10911 10910 10908 10905 10902 10900 10897 10892 10887 10881 10877 10874 10870 10867 10864 10862 10860 10858 10857 10855 10853 10850 10846 10843 10840 10836 10832 10828 10824 10820 10816 10812 10809 10805 10800 10796 10791 10786 10780 10777 10773 10770 10766 10762 10758 10754 10751 10747 10741 10736 10730 10724 10720 10719 10718 10715 10711 10707 10705 10703 10700 10697 10695 10692 10691 10691 10690 10688 10688 10689 10690 10691
10916 10916 10915 10914 10913 10912 10911 10909 10909 10908 10907 10906 10906 10905 10905 10903 10901 10898 10895 10891 10887 10882 10878 10874 10871 10868 10865 10862 10859 10856 10854 10853 10851 10849 10846 10842 10838 10834 10831 10827 10823 10819 10815 10811 10806 10802 10798 10793 10788 10783 10778 10773 10768 10765 10761 10756 10752 10749 10745 10741 10737 10732 10727 10721 10713 10705 10704 10705 10704 10700 10695 10692 10692 10690 10687 10684 10681 10679 10680 10678 10676 10676 10677 10678 10679
10911 10911 10910 10909 10908 10907 10906 10904 10903 10902 10901 10900 10899 10899 10899 10899 10896 10894 10891 10885 10880 10876 10873 10871 10868 10865 10863 10860 10856 10852 10851 10850 10848 10845 10841 10837 10834 10830 10826 10822 10818 10813 10808 10804 10799 10795 10791 10785 10780 10776 10771 10766 10761 10757 10754 10749 10744 10740 10736 10731 10726 10721 10716 10711 10704 10694 10689 10690 10691 10689 10684 10678 10678 10678 10675 10671 10668 10667 10667 10665 10663 10663 10664 10664 10664
10907 10906 10905 10904 10903 10902 10901 10900 10898 10897 10895 10894 10893 10893 10894 10894 10892 10891 10886 10878 10873 10871 10867 10865 10865 10862 10859 10857 10854 10851 10849 10847 10845 10841 10837 10833 10829 10825 10821 10816 10811 10806 10802 10797 10792 10787 10783 10778 10773 10768 10764 10760 10754 10749 10746 10742 10736 10730 10725 10719 10714 10710 10704 10698 10692 10684 10677 10675 10677 10677 10672 10664 10662 10664 10662 10658 10656 10655 10653 10651 10650 10649 10649 10649 10649
10901 10901 10900 10899 10898 10898 10897 10896 10895 10893 10891 10889 10888 10889 10890 10890 10889 10888 10883 10873 10868 10868 10864 10861 10861 10859 10855 10854 10852 10849 10847 10845 10841 10837 10833 10828 10823 10818 10814 10809 10804 10799 10794 10790 10785 10780 10775 10771 10765 10760 10757 10753 10748 10742 10737 10733 10727 10721 10715 10709 10702 10698 10692 10685 10679 10672 10666 10663 10663 10663 10659 10651 10647 10648 10647 10643 10642 10642 10639 10637 10635 10635 10635 10634 10635
10896 10896 10896 10894 10893 10893 10892 10892 10892 10890 10887 10885 10884 10884 10884 10885 10885 10886 10885 10874 10864 10862 10860 10856 10856 10855 10852 10850 10848 10846 10844 10840 10836 10832 10826 10821 10815 10811 10806 10802 10797 10792 10787 10783 10778 10773 10768 10763 10758 10753 10749 10744 10739 10733 10728 10723 10718 10712 10706 10700 10693 10686 10680 10673 10666 10659 10654 10651 10650 10650 10646 10638 10633 10633 10631 10627 10627 10626 10624 10622 10621 10621 10621 10620 10620
10891 10892 10890 10889 10888 10888 10888 10888 10887 10885 10883 10881 10880 10879 10878 10880 10880 10882 10884 10875 10861 10858 10859 10856 10852 10848 10845 10844 10843 10840 10838 10834 10829 10824 10818 10813 10808 10804 10799 10795 10790 10785 10781 10776 10771 10766 10761 10756 10752 10747 10742 10736 10731 10725 10719 10714 10709 10703 10697 10691 10683 10676 10668 10660 10652 10646 10640 10637 10637 10637 10633 10626 10620 10618 10616 10613 10612 10610 10607 10606 10607 10607 10607 10606 10605
10885 10887 10886 10883 10883 10883 10883 10883 10882 10881 10878 10876 10875 10874 10873 10875 10875 10874 10874 10868 10859 10858 10861 10859 10852 10846 10842 10841 10838 10835 10831 10827 10822 10816 10811 10806 10802 10797 10793 10788 10783 10778 10774 10769 10764 10759 10755 10750 10745 10740 10734 10729 10722 10716 10711 10705 10699 10692 10686 10679 10671 10663 10656 10648 10640 10632 10626 10623 10623 10623 10620 10614 10607 10604 10601 10598 10596 10594 10590 10590 10592 10592 10591 10591 10591
10880 10882 10880 10878 10878 10879 10878 10878 10877 10875 10872 10870 10870 10869 10868 10869 10869 10866 10861 10857 10855 10857 10857 10853 10848 10845 10842 10838 10833 10829 10824 10819 10814 10809 10804 10801 10797 10792 10786 10781 10776 10771 10767 10762 10757 10752 10748 10742 10737 10732 10727 10721 10714 10707 10701 10695 10688 10681 10674 10666 10658 10650 10643 10636 10629 10622 10614 10609 10609 10609 10606 10600 10595 10591 10587 10583 10580 10577 10575 10575 10576 10576 10575 10576 10577
10875 10876 10874 10873 10874 10874 10873 10872 10872 10870 10867 10866 10865 10864 10863 10864 10865 10862 10854 10848 10849 10852 10851 10846 10842 10840 10836 10832 10827 10822 10816 10811 10806 10802 10799 10795 10790 10785 10780 10773 10768 10764 10760 10755 10750 10745 10740 10734 10729 10724 10718 10712 10705 10698 10691 10684 10677 10670 10663 10655 10646 10638 10630 10623 10618 10612 10603 10596 10595 10595 10592 10586 10581 10578 10574 10569 10564 10561 10559 10560 10559 10559 10560 10562 10564
10869 10868 10867 10867 10868 10869 10868 10867 10866 10865 10863 10861 10859 10858 10857 10857 10860 10861 10856 10847 10843 10843 10842 10840 10837 10833 10829 10824 10818 10813 10808 10804 10800 10797 10793 10788 10783 10778 10772 10766 10761 10757 10753 10748 10743 10737 10732 10727 10721 10716 10709 10702 10696 10689 10682 10674 10666 10659 10651 10643 10635 10626 10619 10612 10605 10600 10593 10584 10581 10581 10578 10572 10566 10563 10562 10559 10553 10546 10544 10545 10545 10544 10546 10550 10551